Ardmore, OK

10:39 AM CST on February 19, 2018 (GMT -0600)
Ardmore Municipal

Weather History for KADM - May, 2013

Change the Weather History Date:

Wednesday, May 22, 2013

  Actual Average Record
Temperature  
Mean Temperature 68 °F -  
Max Temperature 87 °F 80 °F 100 °F (2005)
Min Temperature 48 °F 62 °F 48 °F (2013)
Cooling Degree Days 2    
Growing Degree Days 18 (Base 50)    
Moisture  
Dew Point 52 °F    
Average Humidity 78    
Maximum Humidity 94    
Minimum Humidity 27    
Precipitation  
Precipitation 0.01 in - - ()
Sea Level Pressure  
Sea Level Pressure 29.87 in    
Wind  
Wind Speed 1 mph (South)    
Max Wind Speed 8 mph    
Max Gust Speed -    
Visibility 4 miles    
Events Fog    
Averages and records for this station are not official NWS values.
T = Trace of Precipitation, MM = Missing Value Source: NWS Daily Summary

Daily Weather History Graph

Daily Weather History Graph

Search for Another Location

Airport or City:

Trip Planner

Search our weather history database for the weather conditions in past years. The results will help you decide how hot, cold, wet, or windy it might be!

Date:

Astronomy

May. 22, 2013 Rise Set
Actual Time 6:21 AM CDT 8:28 PM CDT
Civil Twilight 5:53 AM CDT 8:56 PM CDT
Nautical Twilight 5:18 AM CDT 9:31 PM CDT
Astronomical Twilight 4:41 AM CDT 10:08 PM CDT
Moon 5:57 PM CDT (5/22) 4:18 AM CDT (5/22)
Length of Visible Light 15h 03m
Length of Day
14h 07m
Waxing Gibbous, 91% of the Moon is Illuminated
May 22
Waxing Gibbous
May 24
Full
May 31
Last Quarter
Jun 8
New
Jun 16
First Quarter

Hourly Weather History & Observations

Time (CDT) Temp. Heat Index Dew Point Humidity Pressure Visibility Wind Dir Wind Speed Gust Speed Precip Events Conditions
12:15 AM 54.1 °F - 51.4 °F 91% 29.85 in 0.5 mi Calm Calm - N/A Fog Fog
12:35 AM 54.7 °F - 52.0 °F 91% 29.85 in 0.5 mi Calm Calm - N/A Fog Fog
12:55 AM 54.3 °F - 51.8 °F 91% 29.86 in 0.5 mi Calm Calm - N/A Fog Fog
1:15 AM 53.8 °F - 51.3 °F 91% 29.85 in 0.2 mi Calm Calm - N/A Fog Fog
1:35 AM 53.1 °F - 50.5 °F 91% 29.86 in 0.5 mi Calm Calm - N/A Fog Fog
1:55 AM 52.9 °F - 50.4 °F 91% 29.86 in 0.5 mi Calm Calm - N/A Fog Fog
2:15 AM 53.1 °F - 50.5 °F 91% 29.86 in 0.2 mi Calm Calm - N/A Fog Fog
2:35 AM 52.7 °F - 50.2 °F 91% 29.84 in 0.2 mi Calm Calm - N/A Fog Fog
2:55 AM 52.2 °F - 49.6 °F 91% 29.85 in 0.2 mi Calm Calm - N/A Fog Fog
3:15 AM 52.2 °F - 49.6 °F 91% 29.84 in 0.8 mi Calm Calm - N/A   Overcast
3:35 AM 51.8 °F - 49.3 °F 91% 29.85 in 0.5 mi Calm Calm - N/A Fog Fog
3:55 AM 51.8 °F - 49.3 °F 91% 29.85 in 0.2 mi Calm Calm - N/A Fog Fog
4:15 AM 50.5 °F - 48.2 °F 92% 29.85 in 1.0 mi Calm Calm - N/A   Overcast
4:35 AM 50.7 °F - 48.2 °F 91% 29.85 in 0.2 mi Calm Calm - N/A Fog Fog
4:55 AM 50.9 °F - 48.2 °F 90% 29.86 in 0.2 mi Calm Calm - N/A Fog Fog
5:15 AM 50.4 °F - 47.8 °F 91% 29.86 in 0.5 mi Calm Calm - 0.01 in Fog Fog
5:35 AM 50.0 °F - 47.5 °F 91% 29.86 in 0.8 mi Calm Calm - 0.01 in   Overcast
5:55 AM 49.5 °F - 46.9 °F 91% 29.86 in 1.0 mi East 3.5 mph - 0.01 in   Overcast
6:15 AM 48.7 °F - 46.4 °F 92% 29.87 in 0.8 mi Calm Calm - N/A   Overcast
6:35 AM 49.1 °F - 46.6 °F 91% 29.87 in 1.8 mi Calm Calm - N/A   Overcast
7:55 AM 55.4 °F - 53.6 °F 94% 29.89 in 0.5 mi Calm Calm - N/A Fog Fog
8:38 AM 55.4 °F - 53.6 °F 94% 29.89 in 10.0 mi Calm Calm - N/A   Scattered Clouds
8:55 AM 62.6 °F - 60.8 °F 94% 29.91 in 10.0 mi Calm Calm - N/A   Clear
9:55 AM 66.2 °F - 62.6 °F 88% 29.94 in 10.0 mi SW 5.8 mph - N/A   Clear
10:55 AM 73.4 °F - 60.8 °F 65% 29.94 in 10.0 mi WSW 8.1 mph - N/A   Clear
11:55 AM 77.0 °F - 57.2 °F 50% 29.94 in 10.0 mi WSW 6.9 mph - N/A   Clear
12:55 PM 80.6 °F 80.8 °F 57.2 °F 45% 29.94 in 10.0 mi WSW 5.8 mph - N/A   Clear
3:55 PM 87.8 °F - 50.0 °F 27% 29.89 in 10.0 mi SW 4.6 mph - N/A   Clear
4:55 PM 87.8 °F - 51.8 °F 29% 29.87 in 10.0 mi Calm Calm - N/A   Clear
5:55 PM 86.0 °F - 50.0 °F 29% 29.86 in 10.0 mi South 6.9 mph - N/A   Clear
6:55 PM 84.2 °F - 50.0 °F 30% 29.86 in 10.0 mi SSE 4.6 mph - N/A   Clear
7:55 PM 80.6 °F 80.3 °F 53.6 °F 39% 29.87 in 10.0 mi SE 4.6 mph - N/A   Clear
11:35 PM 63.9 °F - 55.8 °F 75% 29.91 in 10.0 mi SE 4.6 mph - N/A   Clear
11:55 PM 64.4 °F - 57.9 °F 79% 29.90 in 10.0 mi ESE 4.6 mph - N/A   Clear